DW9558 Weather Reports


Display with metric or nautical units.
time (UTC)temp
F
wind
direction
speed
MPH
gust
MPH
rain 1hr
in
rain 24hr
in
rain mn
in
humidity
%
barometer
mb
20260502151514 57 305 1.0 9.0 0.00 0.00 0.00 82 1017.9
20260502123052 53 306 1.0 7.0 0.00 0.00 0.00 86 1016.8
20260502121551 53 306 0.0 5.0 0.00 0.00 0.00 86 1016.7
20260502120104 54 306 2.0 5.0 0.00 0.00 0.00 85 1016.7
20260502114625 54 306 1.0 5.0 0.00 0.00 0.00 85 1016.7
20260502113049 54 306 0.0 4.0 0.00 0.00 0.00 84 1016.8
20260502111548 54 306 0.0 4.0 0.00 0.00 0.00 84 1016.9
20260502110048 54 306 1.0 7.0 0.00 0.00 0.00 83 1016.8
20260502104545 55 306 0.0 3.0 0.00 0.00 0.00 83 1016.8
20260502103044 55 306 1.0 5.0 0.00 0.00 0.00 82 1016.9
20260502101559 55 306 1.0 5.0 0.00 0.00 0.00 82 1017.0
20260502071523 59 306 0.0 4.0 0.00 0.00 0.00 78 1017.4
20260502070021 59 306 0.0 4.0 0.00 0.00 0.00 77 1017.3
20260502064537 60 306 0.0 2.0 0.00 0.00 0.00 76 1017.4
20260502063022 60 306 0.0 2.0 0.00 0.00 0.00 76 1017.2
20260502061518 61 306 0.0 1.0 0.00 0.00 0.00 76 1017.2
20260502060029 61 306 0.0 3.0 0.00 0.00 0.00 75 1017.2
20260502054516 62 306 1.0 6.0 0.00 0.00 0.00 75 1017.2
20260502053017 62 306 0.0 4.0 0.00 0.00 0.00 75 1017.2
20260502051516 63 306 0.0 6.0 0.00 0.00 0.00 74 1017.2
20260502050020 64 306 0.0 3.0 0.00 0.00 0.00 74 1017.2
20260502044515 65 306 0.0 5.0 0.00 0.00 0.00 73 1017.0
20260502043015 66 306 3.0 8.0 0.00 0.00 0.00 71 1016.9
20260502041514 67 306 1.0 5.0 0.00 0.00 0.00 69 1016.9
20260502040021 68 306 2.0 5.0 0.00 0.00 0.00 69 1016.8
20260502034513 69 306 2.0 5.0 0.00 0.00 0.00 67 1016.4
20260502033024 70 306 0.0 6.0 0.00 0.00 0.00 65 1016.3
20260502031512 71 306 1.0 5.0 0.00 0.00 0.00 63 1016.1
20260502030012 73 306 1.0 6.0 0.00 0.00 0.00 61 1016.0
20260502024515 74 306 2.0 5.0 0.00 0.00 0.00 60 1015.9
20260502023011 75 306 2.0 5.0 0.00 0.00 0.00 58 1015.9
20260502021510 76 306 1.0 6.0 0.00 0.00 0.00 54 1015.8
20260502020011 77 306 0.0 5.0 0.00 0.00 0.00 53 1015.7
20260502014508 77 306 0.0 4.0 0.00 0.00 0.00 49 1015.7
20260502013008 78 306 1.0 5.0 0.00 0.00 0.00 52 1015.8
20260502011507 79 306 0.0 3.0 0.00 0.00 0.00 51 1015.9
20260502010016 80 306 1.0 4.0 0.00 0.00 0.00 48 1016.0
20260502004512 80 306 0.0 4.0 0.00 0.00 0.00 47 1016.0
20260502003004 81 306 1.0 4.0 0.00 0.00 0.00 46 1016.0
20260502001503 81 306 1.0 6.0 0.00 0.00 0.00 45 1016.2
20260502000003 82 306 2.0 6.0 0.00 0.00 0.00 45 1016.2
20260501234501 82 306 1.0 6.0 0.00 0.00 0.00 46 1016.2
20260501233109 83 306 1.0 4.0 0.00 0.00 0.00 45 1016.3
20260501231612 83 306 0.0 5.0 0.00 0.00 0.00 45 1016.5
20260501230057 83 306 0.0 4.0 0.00 0.00 0.00 44 1016.7
20260501224554 82 306 1.0 5.0 0.00 0.00 0.00 47 1016.9
20260501223053 83 306 1.0 4.0 0.00 0.00 0.00 46 1017.2
20260501221550 82 306 1.0 4.0 0.00 0.00 0.00 46 1017.6
20260501220055 83 306 1.0 4.0 0.00 0.00 0.00 45 1017.7
20260501214544 82 306 0.0 5.0 0.00 0.00 0.00 47 1017.9
20260501213046 81 306 1.0 5.0 0.00 0.00 0.00 48 1018.1
20260501211544 80 306 0.0 4.0 0.00 0.00 0.00 48 1018.2
20260501210038 80 306 1.0 4.0 0.00 0.00 0.00 47 1018.2
20260501204545 79 306 0.0 3.0 0.00 0.00 0.00 51 1018.4
20260501203031 78 306 2.0 4.0 0.00 0.00 0.00 51 1018.6
20260501201529 77 306 0.0 4.0 0.00 0.00 0.00 52 1018.8
20260501200028 77 306 1.0 6.0 0.00 0.00 0.00 52 1018.9
20260501194527 76 306 2.0 5.0 0.00 0.00 0.00 52 1019.0
20260501193021 76 306 1.0 5.0 0.00 0.00 0.00 54 1019.2
20260501191524 75 306 1.0 7.0 0.00 0.00 0.00 55 1019.4
20260501190020 74 306 1.0 5.0 0.00 0.00 0.00 56 1019.5
20260501184523 73 306 1.0 5.0 0.00 0.00 0.00 58 1019.7
20260501183007 73 306 1.0 5.0 0.00 0.00 0.00 59 1019.7
20260501181505 72 306 1.0 8.0 0.00 0.00 0.00 60 1019.9
20260501180001 70 306 1.0 5.0 0.00 0.00 0.00 62 1019.9
20260501174557 69 306 1.0 5.0 0.00 0.00 0.00 64 1019.9
20260501173057 68 306 1.0 5.0 0.00 0.00 0.00 65 1019.8
20260501171556 67 306 1.0 4.0 0.00 0.00 0.00 66 1019.9
20260501170046 66 306 2.0 5.0 0.00 0.00 0.00 67 1019.9
20260501164543 66 306 0.0 4.0 0.00 0.00 0.00 69 1020.0
20260501163041 64 306 1.0 3.0 0.00 0.00 0.00 70 1020.0
20260501161536 63 306 1.0 5.0 0.00 0.00 0.00 72 1020.0
20260501160039 62 306 1.0 4.0 0.00 0.00 0.00 75 1019.9
20260501154539 60 306 1.0 4.0 0.00 0.00 0.00 77 1019.9
20260501153023 60 306 1.0 4.0 0.00 0.00 0.00 79 1019.8